www.pogodaiklimat.ru

ПОГОДА в Арктик-Виллидже, AK

  • Прогноз погоды в Арктик-Виллидже
  • Монитор погоды в Арктик-Виллидже
  • Климат в Арктик-Виллидже

АРХИВ ПОГОДЫ в Арктик-Виллидже

Время (UTC), дата Ветер
(напр.,м/с)
 
Видим.   Явления Облачность Т
(С)
Тd
(С)
f
(%)
Тe
(С)
Тes
(С)
Комфортность

P
(гПа)

Po
(гПа)
Тmin
(С)
Tmax
(С)
R
(мм)
SD
(см)
00:56 23.03 С  16 км    2/2 930 м  -5.6  -10.0  71  -14  -13    1017.8  937.5         
01:56 23.03 С  16 км    ясно  -6.1  -10.0  74  -12  -12    1017.9  937.5         
02:56 23.03 С  16 км    ясно  -6.7  -10.0  77  -13  -13    1017.8  937.2         
03:56 23.03 СЗ  6
{8} 
16 км    ясно  -6.7  -10.0  77  -15  -15    1017.9  937.5         
04:56 23.03 С  16 км    ясно  -7.2  -10.6  77  -15  -15    1018.0  937.5  -7.2  -5.6     
05:56 23.03 С  16 км    ясно  -7.8  -11.1  77  -13  -13    1018.0  937.5         
06:56 23.03 С  16 км    ясно  -8.3  -11.7  76  -16  -16    1017.8  937.5         
07:56 23.03 С  16 км    2/0 3600 м
[средняя] 
-9.4  -12.2  80  -17  -17    1017.8  937.5         
08:56 23.03 СЗ  16 км    ясно  -7.8  -11.1  77  -16  -16    1017.3  936.8         
09:56 23.03 С  16 км    ясно  -8.3  -11.7  76  -16  -16    1017.0  936.8         
10:56 23.03 С  16 км    ясно  -11.7  -13.3  88  -18  -18    1017.4  936.8  -11.7  -7.2     
11:56 23.03 С  16 км    ясно  -12.2  -13.9  87  -16  -16    1017.2  936.5         
12:56 23.03 С  16 км    ясно  -12.8  -13.9  91  -19  -19    1016.6  935.9         
13:56 23.03   16 км    ясно  -14.4  -16.1  87  -14  -14    1016.6  935.9         
14:56 23.03 С  16 км    ясно  -15.6  -17.2  87  -22  -22    1016.5  935.6         
15:56 23.03 З  14 км    ясно  -13.9  -15.6  87  -20  -20    1016.4  935.6         
16:56 23.03 СВ  16 км    ясно  -11.1  -12.8  87  -15  -14    1015.9  935.3  -15.6  -11.1     
17:56 23.03 С  16 км    ясно  -7.8  -11.1  77  -11  -10    1015.7  935.6         
18:56 23.03 С  16 км    ясно  -6.1  -10.0  74  -11  -9    1015.1  935.0         
19:56 23.03 СЗ  16 км    ясно  -5.6  -12.2  60  -11  -9    1015.1  935.0         
20:56 23.03   16 км    10/0 3300 м
[средняя] 
-3.3  -10.6  57  -4  -3    1015.0  935.3         
21:56 23.03 З  16 км    5/0 3600 м
[средняя] 
-3.3  -10.6  57  -6  -4    1014.8  935.0         
22:56 23.03 С  16 км    8/0 3600 м
[средняя] 
-3.9  -11.1  57  -7  -5    1015.0  934.7  -11.1  -1.1     
23:56 23.03   16 км    2/0 3300 м
[средняя] 
-2.8  -10.0  58  -3  -1    1015.3  935.3         
00:56 24.03 СЗ  16 км    ясно  -1.1  -9.4  53  -4  -2    1014.9  935.0         
01:56 24.03   16 км    ясно  -2.2  -10.0  55  -3  -2    1015.4  935.0         
02:56 24.03 СЗ  16 км    ясно  -6.1  -11.1  68  -11  -11    1015.9  935.0         
03:56 24.03   16 км    ясно  -8.9  -12.2  77  -9  -9    1016.7  935.6         
04:56 24.03   16 км    5/0 3300 м
[средняя] 
-10.6  -12.8  84  -11  -11    1017.1  936.2  -10.6  +0.6     
05:56 24.03   16 км    10/0 3600 м
[средняя] 
-11.1  -13.3  84  -11  -11    1017.1  936.5         
06:56 24.03 СЗ  16 км    8/0 2700 м
[средняя] 
-11.1  -13.3  84  -17  -17    1017.3  936.8         
07:56 24.03   16 км    8/0 2550 м
[средняя] 
-11.1  -13.9  80  -11  -11    1017.8  937.2         
08:56 24.03 С  16 км    ясно  -12.2  -13.3  91  -18  -18    1017.8  937.2         
09:56 24.03   14 км    ясно  -13.9  -15.6  87  -14  -14    1017.8  937.2         
10:56 24.03 ЮВ  16 км    ясно  -15.0  -16.7  87  -19  -19    1018.3  937.5  -15.0  -10.6     
11:56 24.03 З  16 км    ясно  -16.1  -17.8  87  -20  -20    1018.6  937.8         
12:56 24.03   16 км    ясно  -17.2  -19.4  83  -17  -17    1018.9  938.1         
13:56 24.03   16 км    ясно  -17.2  -18.9  87  -17  -17    1019.1  938.1         
14:56 24.03   11 км    ясно  -17.8  -20.0  83  -18  -18    1020.1  938.7         
15:22 24.03 СЗ  16 км    5/5 30 м  -18.0  -20.0  84  -22  -22      938.7         
15:27 24.03 СЗ  4 км  дымка  8/8 30 м  -18.0  -19.0  92  -22  -22      938.7         
15:30 24.03 СЗ  2 км  дымка  8/8 30 м  -18.0  -19.0  92  -22  -22      938.7         
15:38 24.03   3 км  дымка  8/8 30 м  -17.0  -19.0  84  -17  -17      938.7         
15:45 24.03   14 км    8/8 30 м  -17.0  -19.0  84  -17  -17      938.7         
15:56 24.03   16 км    5/5 30 м  -17.8  -19.4  87  -18  -18    1020.6  938.7         
16:28 24.03   10 км  дымка  8/8 30 м  -14.0  -16.0  85  -14  -14      939.0         
16:48 24.03   11 км    5/5 30 м  -13.0  -15.0  85  -13  -13      939.0         
17:56 24.03   16 км    ясно  -12.2  -13.9  87  -12  -11    1020.7  939.4         

 

Местоположение метеостанции Arctic Village Airport: широта 68.1144 долгота -145.5792 высота над уровнем моря 638 м.

В архиве по умолчанию представлена погода в Арктик-Виллидже за последние 1-2 суток. Обновление информации о фактической погоде в базе происходит ежечасно! Архивные данные за месяц целиком и за предыдущие месяцы Вы можете получить, выбрав интересующий диапазон дат из раскрывающегося списка и нажав кнопку "Ввод!".

Внимание! Архив погоды МЕТАР в базе сайта хранится не более 60 дней. Нет смысла пытаться выбрать более раннюю дату.

Внимание! Время в таблицах - всемирное. Для получения местного времени необходимо прибавить поправку, которая в Арктик-Виллидже равна -9 ч.

Ветер - указаны скорость ветра в м/с и направление, откуда дует ветер: С - северный, СВ - северо-восточный, В - восточный, ЮВ - юго-восточный, Ю - южный, ЮЗ - юго-западный, З - западный, СЗ - северо-западный.
Видимость - горизонтальная дальность видимости в метрах или километрах. При видимости от 1 до 10 км при отсутствии осадков обычно наблюдается дымка, при ухудшении видимости до 1 км и менее - туман. В сухую погоду видимость может ухудшаться дымом, пылью или мглою.
Атмосферные явления - указаны явления, наблюдавшиеся в указанный момент времени.
Облачность - указаны через наклонную черту верхняя и нижняя облачность в баллах и высота нижней границы облаков в метрах. Внимание: облачность, как и прочие метеорологические величины в США измеряются автоматическими метеостанциями. Указанные значения в баллах носят условный характер и показывают процент времени, в течение которого, в среднем, лазерный луч высотомера отражался от облаков обратно.
T - Температура воздуха - температура, измеренная на высоте 2 м над землей.
Td - Температура точки росы - температура, при понижении до которой содержащийся в воздухе водяной пар достигнет насыщения.
f - Относительная влажность воздуха - влажноcть воздуха, измеренная на высоте 2 м над землей.
Te - Эффективная температура - температура, которую ощущает одетый по сезону человек в тени. Характеристика душности погоды. При расчете учитывается влияние влажности воздуха и скорости ветра на теплоощущения человека.
Tes - Эффективная температура на солнце - температура, которую ощущает человек, с поправкой на солнечный нагрев. Характеристика знойности погоды. Зависит от высоты солнца над горизонтом, облачности и скорости ветра. Ночью, в пасмурную погоду, а также при ветре 12 м/с и более поправка равна нулю.
P - Атмосферное давление - приведенное к уровню моря атмосферное давление.
Po - Атмосферное давление - измеренное на уровне метеостанции атмосферное давление.
Tmin - Минимальная температура - минимум температуры воздуха на высоте 2 м над землей.
Tmax - Максимальная температура - максимум температуры воздуха на высоте 2 м над землей.
R - Количество осадков - Количество выпавших осадков за 3 или 6 часов, мм.
SD - Снежный покров - Высота снежного покрова, см.